Hourly Data Report for October 04, 2017

All times are specified in Local Standard Time (LST). Add 1 hour to adjust for Daylight Saving Time where and when it is observed.

FORT SMITH A
NORTHWEST TERRITORIES

60°01'13.000" N
111°57'43.000" W
205.10 m
2202201
71934
YSM

Download Data

Hourly Data (October 2017)
Hourly Data Report for October 4, 2017
Temp Definition
°C
Dew Point Temp Definition
°C
Rel Hum Definition
%
Wind Dir Definition
10's deg

Wind Spd Definition
km/h
Visibility Definition
km
Stn Press Definition
kPa
Hmdx Definition


Wind Chill Definition


Weather Definition


TIME
00:00 Legend Double Dagger 4.8 0.2 72 34 13 24.1 99.44     LegendNANA
01:00 Legend Double Dagger 4.6 0.6 76 34 7 24.1 99.53     LegendNANA
02:00 Legend Double Dagger 4.4 0.7 77 35 9 24.1 99.58     Cloudy
03:00 Legend Double Dagger 4.2 1.1 80 36 10 24.1 99.65     LegendNANA
04:00 Legend Double Dagger 4.0 1.1 81 32 4 24.1 99.69     LegendNANA
05:00 Legend Double Dagger 3.8 0.5 79 33 5 24.1 99.73     Mostly Cloudy
06:00 Legend Double Dagger 3.2 0.8 84 30 8 24.1 99.74     LegendNANA
07:00 Legend Double Dagger 3.3 1.3 87 27 6 24.1 99.75     LegendNANA
08:00 Legend Double Dagger 3.3 2.0 91 33 4 19.3 99.78     Rain
09:00 Legend Double Dagger 3.6 2.2 91 0 1 24.1 99.79     LegendNANA
10:00 Legend Double Dagger 3.8 2.4 91 34 5 19.3 99.77     Drizzle
11:00 Legend Double Dagger 4.5 2.2 85 31 5 24.1 99.75     Mostly Cloudy
12:00 Legend Double Dagger 5.3 1.8 78 28 13 24.1 99.72     LegendNANA
13:00 Legend Double Dagger 5.4 0.8 72 22 4 24.1 99.70     LegendNANA
14:00 Legend Double Dagger 5.8 1.1 72 15 5 24.1 99.66     Mostly Cloudy
15:00 Legend Double Dagger 6.1 0.8 69 23 4 24.1 99.65     LegendNANA
16:00 Legend Double Dagger 5.8 1.3 72 26 4 24.1 99.59     LegendNANA
17:00 Legend Double Dagger 4.2 1.0 79 5 3 24.1 99.57     Mostly Cloudy
18:00 Legend Double Dagger 2.2 0.5 88 36 3 24.1 99.54     LegendNANA
19:00 Legend Double Dagger 1.3 -0.2 90 12 4 24.1 99.49     LegendNANA
20:00 Legend Double Dagger 0.8 -0.3 92 36 3 24.1 99.46     Mostly Cloudy
21:00 Legend Double Dagger 0.7 -0.2 94 10 5 24.1 99.39     LegendNANA
22:00 Legend Double Dagger 0.2 -0.9 93 9 3 24.1 99.36     LegendNANA
23:00 Legend Double Dagger 2.3 0.7 89 11 4 24.1 99.33     Mostly Cloudy

Notes on Data Quality.

Legend

  • E = Estimated
  • M = Missing
  • NA = Not Available
  • ‡ = Partner data that is not subject to review by the National Climate Archives
Date modified: